Location: Newark
(25.2697°N, 55.3094°E)
Time: 06:32:45
(UTC+00:00)

N. Korean satellite - Visible Passes

Search period start: 13 November 2019 00:00
Search period end: 23 November 2019 00:00
Orbit: 456 x 506 km, 97.2° (Epoch: 12 November)

Date Brightness Start Highest point End Pass type
(mag) Time Alt. Az. Time Alt. Az. Time Alt. Az.
13 Nov 10.1 14:33:20 10° WSW 14:34:50 12° W 14:36:21 10° WNW visible
14 Nov 6.6 02:05:36 10° N 02:09:17 82° WNW 02:12:56 10° SSW visible
14 Nov 8.9 14:06:17 10° SSW 14:09:22 29° W 14:12:31 10° NW visible
15 Nov 8.3 01:40:29 10° NNE 01:43:56 38° E 01:47:20 10° SSE visible
16 Nov 9.9 01:16:08 10° NE 01:18:30 16° E 01:20:50 10° SE visible
17 Nov 9.9 14:24:22 10° SW 14:26:39 16° W 14:28:58 10° NW visible
18 Nov 6.9 01:57:30 10° NNE 02:01:10 74° E 02:04:46 10° S visible
18 Nov 8.3 13:57:51 10° SSW 14:01:12 38° W 14:04:37 10° NNW visible
19 Nov 8.9 01:32:33 10° NE 01:35:45 28° E 01:38:55 10° SSE visible
20 Nov 10.1 01:08:43 10° ENE 01:10:18 12° E 01:11:50 10° ESE visible
21 Nov 6.6 02:14:44 10° N 02:18:19 56° WNW 02:21:51 10° SSW visible
21 Nov 9.5 14:15:38 10° SSW 14:18:26 21° W 14:21:16 10° NW visible
22 Nov 7.5 01:49:24 10° NNE 01:52:58 54° E 01:56:29 10° S visible
22 Nov 7.6 13:49:29 10° S 13:53:00 52° W 13:56:35 10° NNW visible
